Anik F1R

operational
NORAD ID: 28868 Int'l Des: 2005-036 Owner: TCAN Country: CA
HEOCIRCULARGSO

关于 Anik F1R

正在加载描述...

实时位置

正在加载3D地球...

即将过境

高度历史

Altitude vs Time

uPlot chart will show altitude changes over time

两行轨道根数

1 28868U 05036A 26061.56688590 -.00000090 00000-0 00000-0 0 9998
2 28868 4.0402 77.9152 0002757 295.5072 243.7015 1.00271878 45382
Epoch: Mar 2, 2026 • Age: 27 hours

当前状态

高度 35784.5 km
速度 3.07 km/s
星下点 1.24°N, 107.3°W
发射日期 Sep 8, 2005
运行时间 20.4 years
类型 other

技术详情

分类 Payload
质量 4500.00 kg
干质量 2000.00 kg
总质量 4500.00 kg
长度 4.80 m
直径 2.40 m
跨度 35.00 m
形状 Box + 2 Pan
制造商 EADSB
平台类型 Eurostar 3000
阶段状态 In Orbit
所有者/国家 TCAN/CA

大型星座

Loading constellations...